BEIDOU-3S M2S (C58)

Last updated on Sat Aug 15 2026 00:03:26 GMT+0000 (Coordinated Universal Time)

1 40748U 15037A 26225.24009297 -.00000057 00000+0 00000+0 0 9990 2 40748 54.8171 300.0797 0010654 257.3964 102.5561 1.86231921 75183
UTC large
Height (km)
Speed (km/s)
/
Latitude / Longitude
Inclination (degrees)
Orbital Period (minutes)
Azimuth
Elevation
Range (km)
Doppler Factor

Next 0 passes for location: London (51.5072 / 0.1276)

No passes found over London.
BEIDOU-3S M2S (C58)